GW2822 Weather Reports


time (UTC)temp
C
wind
direction
speed
KPH
gust
KPH
rain 1hr
cm
rain 24hr
cm
rain mn
cm
humidity
%
barometer
mb
20260502220542 22 35 4.8 17.7 0.00 0.00 0.00 46 1018.5
20260502220032 22 16 6.4 17.7 0.00 0.13 0.00 46 1018.5
20260502215546 22 31 8.0 20.9 0.00 0.13 0.00 46 1018.6
20260502215055 22 47 11.3 20.9 0.00 0.13 0.00 46 1018.7
20260502214514 21 9 3.2 20.9 0.00 0.13 0.00 45 1018.7
20260502214027 21 344 8.0 20.9 0.00 0.13 0.00 46 1018.7
20260502213542 21 22 8.0 20.9 0.00 0.13 0.00 45 1018.7
20260502213052 21 65 8.0 20.9 0.00 0.13 0.00 48 1018.7
20260502212508 21 78 9.7 22.5 0.00 0.13 0.00 50 1018.8
20260502212025 21 68 12.9 22.5 0.00 0.13 0.00 48 1019.0
20260502211536 21 348 9.7 20.9 0.00 0.13 0.00 46 1019.1
20260502211055 21 69 9.7 19.3 0.00 0.13 0.00 47 1019.1
20260502210508 21 19 6.4 20.9 0.00 0.13 0.00 50 1019.2
20260502210007 21 23 9.7 20.9 0.00 0.38 0.00 48 1019.2
20260502205520 21 63 1.6 19.3 0.00 0.38 0.00 49 1019.3
20260502205030 21 20 6.4 20.9 0.00 0.38 0.00 47 1019.4
20260502204552 21 38 6.4 20.9 0.00 0.38 0.00 48 1019.4
20260502204054 21 38 4.8 14.5 0.00 0.38 0.00 51 1019.6
20260502203516 21 55 4.8 20.9 0.00 0.38 0.00 49 1019.6
20260502203025 21 5 11.3 20.9 0.00 0.38 0.00 51 1019.6
20260502202537 21 21 9.7 19.3 0.00 0.38 0.00 51 1019.7
20260502202055 21 28 8.0 17.7 0.00 0.38 0.00 48 1019.7
20260502201505 21 80 4.8 16.1 0.00 0.38 0.00 53 1019.8
20260502201020 21 88 3.2 16.1 0.00 0.38 0.00 51 1019.8
20260502200533 21 78 8.0 17.7 0.00 0.38 0.00 53 1019.9
20260502200026 21 19 8.0 19.3 0.00 0.43 0.00 52 1020.1
20260502195543 21 360 11.3 19.3 0.00 0.43 0.00 55 1020.0
20260502195053 21 13 8.0 16.1 0.00 0.43 0.00 51 1020.1
20260502194527 21 109 1.6 14.5 0.00 0.43 0.00 54 1020.1
20260502194023 20 80 1.6 22.5 0.00 0.43 0.00 56 1020.2
20260502193537 20 46 8.0 22.5 0.00 0.43 0.00 55 1020.3
20260502193055 20 14 6.4 20.9 0.00 0.43 0.00 57 1020.4
20260502192511 20 21 1.6 16.1 0.00 0.43 0.00 55 1020.3
20260502192021 20 109 4.8 16.1 0.00 0.43 0.00 54 1020.2
20260502191540 20 88 6.4 20.9 0.00 0.43 0.00 57 1020.4
20260502191053 20 90 8.0 20.9 0.00 0.43 0.00 53 1020.4
20260502190510 21 29 8.0 16.1 0.00 0.43 0.00 53 1020.5
20260502185559 21 25 3.2 11.3 0.00 0.58 0.00 60 1020.5
20260502185505 21 13 3.2 16.1 0.00 0.58 0.00 61 1020.5
20260502185017 21 331 3.2 16.1 0.00 0.58 0.00 62 1020.5
20260502184527 20 11 3.2 19.3 0.00 0.58 0.00 60 1020.5
20260502184044 20 62 3.2 19.3 0.00 0.58 0.00 61 1020.6
20260502183555 20 64 6.4 17.7 0.00 0.58 0.00 59 1020.7
20260502183011 20 36 3.2 16.1 0.00 0.58 0.00 58 1020.8
20260502182525 20 5 6.4 14.5 0.00 0.58 0.00 58 1020.8
20260502182039 20 78 3.2 17.7 0.00 0.58 0.00 59 1020.8
20260502181555 20 355 9.7 19.3 0.00 0.58 0.00 61 1020.8
20260502181007 20 66 9.7 19.3 0.00 0.58 0.00 61 1020.9
20260502180519 20 21 6.4 16.1 0.00 0.58 0.00 62 1021.1
20260502164025 18 5 3.2 20.9 0.00 0.99 0.00 66 1022.0
20260502163539 18 33 1.6 20.9 0.00 0.99 0.00 64 1022.1
20260502163053 18 40 6.4 19.3 0.00 0.99 0.00 65 1022.0
20260502162507 17 10 6.4 19.3 0.00 0.99 0.00 63 1022.0
20260502162018 17 57 6.4 16.1 0.00 0.99 0.00 66 1022.0
20260502161533 17 22 8.0 19.3 0.00 0.99 0.00 66 1022.0
20260502161040 17 46 4.8 19.3 0.00 0.99 0.00 66 1022.1
20260502160554 17 67 4.8 12.9 0.00 0.99 0.00 65 1022.1
20260502152029 15 15 6.4 17.7 0.00 1.04 0.00 70 1022.0
20260502151552 15 35 8.0 17.7 0.00 1.04 0.00 70 1022.0
20260502151053 15 31 3.2 19.3 0.00 1.04 0.00 71 1022.0
20260502150504 15 28 9.7 17.7 0.00 1.04 0.00 71 1021.9
20260502150103 15 355 3.2 14.5 0.00 1.07 0.00 76 1021.9
20260502130523 9 263 0.0 3.2 0.00 1.35 0.00 94 1020.7
20260502123523 8 180 0.0 3.2 0.00 1.40 0.00 94 1020.1
20260502123043 8 180 0.0 1.6 0.00 1.40 0.00 93 1020.0
20260502122548 7 180 0.0 0.0 0.00 1.40 0.00 93 1019.9
20260502122058 7 180 0.0 1.6 0.00 1.40 0.00 93 1019.9
20260502121514 7 180 0.0 1.6 0.00 1.40 0.00 92 1019.9
20260502121024 7 180 0.0 1.6 0.00 1.40 0.00 92 1019.7
20260502120539 7 180 0.0 1.6 0.00 1.40 0.00 92 1019.5
20260502115549 7 331 0.0 1.6 0.00 1.57 0.00 92 1019.6
20260502115100 7 332 0.0 1.6 0.00 1.57 0.00 92 1019.5
20260502115001 8 332 0.0 1.6 0.00 1.57 0.00 92 1019.5
20260502114516 8 332 0.0 1.6 0.00 1.57 0.00 92 1019.3
20260502114028 8 332 0.0 1.6 0.00 1.57 0.00 92 1019.2
20260502113542 8 332 0.0 1.6 0.00 1.57 0.00 92 1019.1
20260502113056 8 331 0.0 0.0 0.00 1.57 0.00 92 1019.2
20260502112512 8 331 0.0 0.0 0.00 1.57 0.00 92 1019.1
20260502112022 8 331 0.0 3.2 0.00 1.57 0.00 92 1019.0
20260502111540 8 331 0.0 3.2 0.00 1.57 0.00 92 1019.0
20260502111055 8 332 0.0 3.2 0.00 1.57 0.00 91 1019.0
20260502110511 8 345 1.6 3.2 0.00 1.57 0.00 91 1019.0
20260502110008 8 346 0.0 1.6 0.00 1.78 0.00 91 1019.0
20260502105522 8 346 0.0 3.2 0.00 1.78 0.00 91 1019.0
20260502105031 8 346 0.0 3.2 0.00 1.78 0.00 91 1018.9
20260502104544 8 347 0.0 1.6 0.00 1.78 0.00 91 1018.8
20260502104057 8 347 0.0 1.6 0.00 1.78 0.00 91 1018.8
20260502103510 8 347 0.0 1.6 0.00 1.78 0.00 91 1018.7
20260502103022 8 347 0.0 4.8 0.00 1.78 0.00 91 1018.6
20260502102538 8 347 0.0 4.8 0.00 1.78 0.00 91 1018.5
20260502102048 8 355 0.0 4.8 0.00 1.78 0.00 91 1018.4
20260502101612 8 355 0.0 8.0 0.00 1.78 0.00 91 1018.4
20260502101013 9 355 1.6 8.0 0.00 1.78 0.00 91 1018.3
20260502100527 9 337 1.6 6.4 0.00 1.78 0.00 91 1018.2
20260502091530 9 351 4.8 9.7 0.00 2.03 0.00 92 1017.2
20260502091043 9 11 3.2 8.0 0.00 2.03 0.00 92 1017.1
20260502090556 9 17 3.2 9.7 0.00 2.03 0.00 92 1017.0
20260502090110 9 360 3.2 9.7 0.00 2.54 0.00 92 1017.1
20260502071510 10 16 4.8 14.5 0.00 2.64 0.00 93 1016.8
20260502071027 10 327 1.6 9.7 0.00 2.64 0.00 93 1016.8
20260502070544 9 355 1.6 9.7 0.00 2.64 0.00 93 1016.9
20260502070047 9 360 1.6 6.4 0.00 2.64 0.00 93 1017.0
20260502065553 9 350 0.0 4.8 0.00 2.64 0.00 93 1017.0
20260502065016 9 321 1.6 4.8 0.00 2.64 0.00 93 1016.9
20260502064526 9 5 0.0 4.8 0.00 2.64 0.00 93 1016.9
20260502064042 10 9 0.0 1.6 0.00 2.64 0.00 93 1016.8
20260502063555 10 9 0.0 4.8 0.00 2.64 0.00 93 1016.8
20260502063016 10 5 0.0 4.8 0.00 2.64 0.00 93 1016.7
20260502062527 10 19 0.0 6.4 0.00 2.64 0.00 93 1016.7
20260502062042 10 346 1.6 6.4 0.00 2.64 0.00 93 1016.7
20260502061611 10 9 1.6 6.4 0.00 2.64 0.00 93 1016.7
20260502061010 10 34 0.0 3.2 0.00 2.64 0.00 93 1016.8
20260502060528 10 34 0.0 6.4 0.00 2.64 0.00 93 1016.9
20260502060023 10 38 1.6 6.4 0.00 2.64 0.00 93 1016.9
20260502055534 10 32 0.0 4.8 0.00 2.64 0.00 93 1016.9
20260502055053 10 40 0.0 4.8 0.00 2.64 0.00 93 1016.8
20260502054509 10 338 0.0 1.6 0.00 2.64 0.00 93 1016.9
20260502054023 10 338 0.0 1.6 0.00 2.64 0.00 93 1017.0
20260502053534 10 338 0.0 1.6 0.00 2.64 0.00 93 1017.0
20260502053048 10 338 0.0 1.6 0.00 2.64 0.00 92 1017.0
20260502052600 10 338 0.0 0.0 0.00 2.64 0.00 92 1017.0
20260502052502 10 338 0.0 0.0 0.00 2.64 0.00 92 1017.0
20260502052017 10 338 0.0 0.0 0.00 2.64 0.00 93 1017.1
20260502051532 10 338 0.0 0.0 0.00 2.64 0.00 93 1017.0
20260502051040 10 337 0.0 1.6 0.00 2.64 0.00 92 1017.0
20260502050558 10 337 0.0 3.2 0.00 2.64 0.00 92 1017.0
20260502050051 10 338 0.0 3.2 0.00 2.64 2.64 92 1016.8
20260502045508 10 338 0.0 1.6 0.00 2.64 2.64 92 1016.8
20260502045022 10 338 0.0 1.6 0.00 2.64 2.64 92 1016.9
20260502044533 10 338 0.0 1.6 0.00 2.64 2.64 92 1016.7
20260502044047 10 338 0.0 1.6 0.00 2.64 2.64 92 1016.7
20260502043601 10 338 0.0 4.8 0.00 2.64 2.64 92 1016.6
20260502043020 11 338 0.0 4.8 0.00 2.64 2.64 92 1016.5
20260502042525 11 360 0.0 4.8 0.00 2.64 2.64 92 1016.4
20260502042041 11 360 1.6 8.0 0.00 2.64 2.64 92 1016.4
20260502041555 11 9 1.6 9.7 0.00 2.64 2.64 92 1016.4
20260502041007 11 32 3.2 12.9 0.00 2.64 2.64 92 1016.5
20260502040517 11 14 3.2 14.5 0.00 2.64 2.64 92 1016.6
20260502040016 11 360 4.8 14.5 0.00 2.64 2.64 92 1016.6
20260502035525 11 17 3.2 12.9 0.00 2.64 2.64 92 1016.6
20260502035041 11 13 3.2 12.9 0.00 2.64 2.64 92 1016.6
20260502034551 11 345 1.6 9.7 0.00 2.64 2.64 92 1016.7
20260502034008 11 360 3.2 12.9 0.00 2.64 2.64 92 1016.6
20260502033523 11 10 1.6 12.9 0.00 2.64 2.64 92 1016.6
20260502033035 11 5 3.2 12.9 0.00 2.64 2.64 92 1016.5
20260502032553 11 16 4.8 16.1 0.00 2.64 2.64 92 1016.5
20260502032005 11 5 4.8 17.7 0.00 2.64 2.64 92 1016.4
20260502031520 11 14 8.0 17.7 0.00 2.64 2.64 92 1016.3
20260502031031 11 18 8.0 16.1 0.00 2.64 2.64 92 1016.3
20260502030545 11 54 3.2 14.5 0.00 2.64 2.64 92 1016.4
20260502030044 11 18 8.0 16.1 0.00 2.69 2.64 92 1016.4
20260502025503 11 35 9.7 24.1 0.00 2.69 2.64 92 1016.4
20260502025017 11 20 16.1 24.1 0.00 2.69 2.64 92 1016.2
20260502024531 11 24 6.4 20.9 0.00 2.69 2.64 92 1016.0
20260502024041 11 22 8.0 22.5 0.00 2.69 2.64 92 1015.8
20260502023557 11 23 11.3 22.5 0.00 2.69 2.64 93 1015.7
20260502023009 11 350 6.4 27.4 0.00 2.69 2.64 93 1015.6
20260502022525 11 5 9.7 27.4 0.00 2.69 2.64 93 1015.4
20260502022036 11 14 6.4 14.5 0.00 2.69 2.64 93 1015.2
20260502021553 11 25 4.8 12.9 0.00 2.69 2.64 93 1015.2
20260502021014 11 53 4.8 12.9 0.00 2.69 2.64 93 1015.1
20260502020521 11 5 3.2 12.9 0.00 2.69 2.64 93 1015.0
20260502020015 11 10 1.6 14.5 0.00 2.69 2.64 93 1014.9
20260502015525 11 10 6.4 14.5 0.00 2.69 2.64 93 1014.9
20260502015043 11 342 1.6 16.1 0.00 2.69 2.64 93 1014.8
20260502014548 11 31 4.8 17.7 0.00 2.69 2.64 93 1014.7
20260502014005 11 34 8.0 17.7 0.00 2.69 2.64 93 1014.6
20260502013517 11 44 4.8 14.5 0.00 2.69 2.64 93 1014.5
20260502013031 11 42 4.8 16.1 0.00 2.69 2.64 93 1014.6
20260502012545 11 45 4.8 16.1 0.00 2.69 2.64 93 1014.6
20260502012059 11 39 4.8 16.1 0.00 2.69 2.64 93 1014.6
20260502012004 11 44 4.8 16.1 0.00 2.69 2.64 93 1014.5
20260502011513 11 49 6.4 24.1 0.00 2.69 2.64 93 1014.5
20260502011026 11 42 9.7 24.1 0.00 2.69 2.64 93 1014.4
20260502010536 11 5 6.4 22.5 0.00 2.69 2.64 94 1014.3
20260502010033 11 18 9.7 27.4 0.00 2.69 2.64 94 1014.2
20260502005547 11 32 14.5 27.4 0.00 2.69 2.64 94 1014.1
20260502005101 11 5 4.8 29.0 0.00 2.69 2.64 94 1014.0
20260502005003 11 13 6.4 29.0 0.00 2.69 2.64 94 1014.0
20260502004517 11 51 16.1 29.0 0.00 2.69 2.64 94 1013.9
20260502004031 11 360 4.8 29.0 0.00 2.69 2.64 95 1013.7
20260502003544 11 53 11.3 33.8 0.00 2.69 2.64 95 1013.7
20260502003105 11 32 17.7 29.0 0.00 2.69 2.64 95 1013.7
20260502003000 11 355 12.9 27.4 0.00 2.69 2.64 95 1013.6
20260502002516 11 25 16.1 27.4 0.00 2.69 2.64 95 1013.4
20260502002027 11 17 16.1 25.7 0.00 2.69 2.64 95 1013.3
20260502001541 11 332 14.5 27.4 0.00 2.69 2.64 95 1013.1
20260502001053 12 33 12.9 27.4 0.00 2.69 2.64 96 1013.1
20260502000509 12 54 12.9 25.7 0.00 2.69 2.64 96 1012.9
20260502000005 12 28 12.9 24.1 0.00 2.69 2.64 96 1012.8
20260501235515 12 5 9.7 22.5 0.00 2.69 2.64 96 1012.8
20260501235028 12 49 4.8 25.7 0.00 2.69 2.64 96 1012.6
20260501234542 12 355 14.5 27.4 0.00 2.69 2.64 96 1012.3
20260501234057 12 18 11.3 27.4 0.00 2.69 2.64 96 1012.3
20260501233513 12 31 9.7 27.4 0.00 2.69 2.64 96 1012.1
20260501233026 12 14 9.7 24.1 0.00 2.69 2.64 96 1011.8
20260501232544 12 340 12.9 24.1 0.00 2.69 2.64 96 1011.7
20260501232052 12 34 9.7 25.7 0.00 2.69 2.64 96 1011.7
20260501231514 12 355 16.1 27.4 0.00 2.69 2.64 96 1011.9
20260501231024 12 40 6.4 27.4 0.00 2.69 2.64 96 1011.9
20260501230541 12 344 12.9 22.5 0.00 2.69 2.64 96 1011.7
20260501230034 12 38 11.3 24.1 0.00 2.69 2.64 96 1011.6
20260501225550 12 360 11.3 24.1 0.00 2.69 2.64 96 1011.7
20260501225004 12 19 8.0 19.3 0.00 2.69 2.64 96 1012.0
20260501224520 12 347 9.7 19.3 0.00 2.69 2.64 96 1011.7
20260501224032 13 355 9.7 17.7 0.00 2.69 2.64 96 1011.7
20260501223550 13 319 6.4 19.3 0.03 2.69 2.64 97 1011.7
20260501223107 13 360 9.7 19.3 0.03 2.69 2.64 96 1011.5
20260501223002 13 323 9.7 20.9 0.03 2.69 2.64 97 1011.4
20260501222519 13 338 8.0 20.9 0.03 2.69 2.64 96 1011.3
20260501222026 13 346 9.7 22.5 0.05 2.69 2.64 96 1011.3
20260501221542 13 311 11.3 22.5 0.08 2.69 2.64 97 1011.4
20260501221100 13 360 9.7 22.5 0.10 2.69 2.64 97 1011.3